TimeCST,TemperatureF,Dew PointF,Humidity,Sea Level PressureIn,VisibilityMPH,Wind Direction,Wind SpeedMPH,Gust SpeedMPH,PrecipitationIn,Events,Conditions,WindDirDegrees,DateUTC
12:58 AM,57.9,57.0,97,30.00,5.0,Calm,Calm,-,N/A,,Scattered Clouds,0,2012-12-08 06:58:00
1:58 AM,57.9,55.9,93,29.99,6.0,Calm,Calm,-,N/A,,Mostly Cloudy,0,2012-12-08 07:58:00
2:58 AM,57.9,55.9,93,29.98,6.0,Calm,Calm,-,N/A,,Overcast,0,2012-12-08 08:58:00
3:58 AM,57.9,55.9,93,29.99,5.0,Calm,Calm,-,N/A,,Overcast,0,2012-12-08 09:58:00
4:05 AM,57.2,55.4,94,29.99,4.0,Calm,Calm,-,N/A,,Overcast,0,2012-12-08 10:05:00
4:58 AM,57.9,55.9,93,29.99,3.0,Calm,Calm,-,N/A,,Overcast,0,2012-12-08 10:58:00
5:47 AM,57.2,55.4,94,30.01,4.0,East,3.5,-,0.00,,Overcast,100,2012-12-08 11:47:00
5:58 AM,57.9,55.9,93,30.01,4.0,Calm,Calm,-,0.00,,Overcast,0,2012-12-08 11:58:00
6:02 AM,57.2,55.4,94,30.02,4.0,Calm,Calm,-,N/A,,Overcast,0,2012-12-08 12:02:00
6:20 AM,57.2,55.4,94,30.01,3.0,Calm,Calm,-,N/A,,Overcast,0,2012-12-08 12:20:00
6:30 AM,57.2,57.2,100,30.02,2.5,Calm,Calm,-,N/A,,Overcast,0,2012-12-08 12:30:00
6:39 AM,57.2,57.2,100,30.02,1.5,Calm,Calm,-,N/A,,Overcast,0,2012-12-08 12:39:00
6:58 AM,57.9,57.0,97,30.02,0.5,East,3.5,-,N/A,Fog,Fog,90,2012-12-08 12:58:00
7:31 AM,59.0,57.2,94,30.03,1.0,ESE,4.6,-,0.00,Rain,Light Rain,110,2012-12-08 13:31:00
7:36 AM,59.0,57.2,94,30.03,0.8,ESE,3.5,-,0.00,,Overcast,110,2012-12-08 13:36:00
7:54 AM,59.0,57.2,94,30.04,1.0,Calm,Calm,-,0.00,,Overcast,0,2012-12-08 13:54:00
7:58 AM,59.0,57.9,96,30.03,1.2,ESE,3.5,-,0.00,,Overcast,110,2012-12-08 13:58:00
8:13 AM,59.0,57.2,94,30.04,2.0,SE,3.5,-,0.00,,Overcast,130,2012-12-08 14:13:00
8:25 AM,60.8,59.0,94,30.05,1.8,ESE,3.5,-,0.00,,Overcast,120,2012-12-08 14:25:00
8:41 AM,60.8,59.0,94,30.05,2.0,SE,3.5,-,0.00,,Overcast,140,2012-12-08 14:41:00
8:53 AM,60.8,60.8,100,30.05,3.0,ESE,3.5,-,0.00,,Overcast,110,2012-12-08 14:53:00
8:58 AM,61.0,60.1,97,30.05,4.0,Variable,3.5,-,0.00,,Overcast,0,2012-12-08 14:58:00
9:58 AM,64.9,61.0,87,30.04,10.0,Calm,Calm,-,0.00,,Overcast,0,2012-12-08 15:58:00
10:13 AM,66.2,62.6,88,30.04,10.0,South,4.6,-,N/A,,Overcast,170,2012-12-08 16:13:00
10:58 AM,68.0,62.1,81,30.02,10.0,SSE,4.6,-,0.00,,Overcast,150,2012-12-08 16:58:00
11:02 AM,68.0,62.6,83,30.03,10.0,South,6.9,-,N/A,,Overcast,180,2012-12-08 17:02:00
11:42 AM,69.8,62.6,78,30.00,10.0,South,8.1,-,0.00,,Overcast,170,2012-12-08 17:42:00
11:58 AM,70.0,62.1,76,29.99,10.0,SE,5.8,-,0.00,,Overcast,140,2012-12-08 17:58:00
12:58 PM,75.0,62.1,64,29.97,10.0,SSW,6.9,-,N/A,,Scattered Clouds,210,2012-12-08 18:58:00
1:03 PM,73.4,62.6,69,29.97,10.0,SW,6.9,-,N/A,,Mostly Cloudy,220,2012-12-08 19:03:00
1:14 PM,73.4,62.6,69,29.97,10.0,SSW,4.6,-,N/A,,Mostly Cloudy,200,2012-12-08 19:14:00
1:58 PM,75.9,61.0,60,29.95,10.0,SSW,6.9,-,N/A,,Scattered Clouds,200,2012-12-08 19:58:00
2:58 PM,73.0,62.1,68,29.96,10.0,SW,3.5,-,N/A,,Clear,230,2012-12-08 20:58:00
3:58 PM,73.0,59.0,61,29.96,10.0,Calm,Calm,-,N/A,,Clear,0,2012-12-08 21:58:00
4:58 PM,64.9,60.1,84,29.98,10.0,Calm,Calm,-,N/A,,Clear,0,2012-12-08 22:58:00
5:58 PM,64.0,59.0,84,30.00,10.0,South,4.6,-,N/A,,Clear,190,2012-12-08 23:58:00
6:58 PM,61.0,59.0,93,30.02,10.0,Calm,Calm,-,N/A,,Clear,0,2012-12-09 00:58:00
7:58 PM,63.0,60.1,90,30.03,10.0,Calm,Calm,-,N/A,,Clear,0,2012-12-09 01:58:00
8:56 PM,60.8,59.0,94,30.04,2.0,Calm,Calm,-,N/A,,Clear,0,2012-12-09 02:56:00
8:58 PM,61.0,59.0,93,30.04,1.5,Calm,Calm,-,N/A,,Clear,0,2012-12-09 02:58:00
9:07 PM,60.8,59.0,94,30.04,0.5,Calm,Calm,-,N/A,Fog,Fog,0,2012-12-09 03:07:00
9:19 PM,60.8,57.2,88,30.04,0.8,Calm,Calm,-,N/A,,Clear,0,2012-12-09 03:19:00
9:23 PM,60.8,59.0,94,30.04,0.8,Calm,Calm,-,N/A,,Mist,0,2012-12-09 03:23:00
9:58 PM,62.1,61.0,96,30.04,0.2,Calm,Calm,-,N/A,Fog,Fog,0,2012-12-09 03:58:00
10:58 PM,61.0,60.1,97,30.04,0.2,Calm,Calm,-,N/A,Fog,Fog,0,2012-12-09 04:58:00
11:58 PM,61.0,60.1,97,30.03,0.2,Calm,Calm,-,N/A,Fog,Fog,0,2012-12-09 05:58:00